Zurück zum Katalog

FENGYUN 1C DEB

AktivPO
NORAD 38124·DEBRIS·🇨🇳 China

Gestartet May 10, 1999 von Taiyuan Satellite Launch Center

Loading…

Nächste Überflüge (nächste 24 Stunden)

TLE

AktuellSource: Space-Track

Epoche: Sep 13, 2026, 12:07 UTC

1 38124U 99025EPV 26256.50526712  .00000103  00000-0  16865-3 0  9995
2 38124  97.8120 152.4469 0355600 314.6753  42.5904 13.41050941582643

Verfolge FENGYUN 1C DEB in Echtzeit mit AllMySat

Download on the App Store